Temperature
10 10 10 10 10 10 10 10 10 9 9 9 9 9 9 9 9 9 9 9 9 9 9 9 9 9 10 10 10 10 10 10 10 10 10 10 10 10
10 10 10 10 10 10 10 10 10 10 9 9 9 9 9 8 8 8 8 8 9 9 9 9 9 9 9 9 9 9 9 9 10 10 10 10 10 10
10 10 10 9 9 9 9 9 9 9 9 9 9 8 8 8 8 8 8 8 8 8 8 9 9 9 9 9 9 9 9 9 9 9 9 9 9 9
9 9 9 9 9 9 9 9 9 9 9 8 8 8 8 8 8 8 8 8 8 8 8 8 8 8 8 8 8 8 8 9 9 9 9 9 9 9
9 9 9 9 9 9 9 9 9 8 8 8 8 8 8 8 8 7 7 7 7 7 8 8 8 8 8 8 8 8 8 8 8 9 9 9 9 9
9 9 9 9 9 9 9 9 8 8 8 8 8 8 7 7 7 7 7 7 7 7 7 8 8 8 8 8 8 8 8 8 8 8 8 8 8 8
9 9 9 9 9 9 9 8 8 8 8 8 7 7 7 7 7 7 7 7 7 7 7 7 7 7 7 8 8 8 8 8 8 8 8 8 8 8
9 8 8 8 8 8 8 8 8 8 8 7 7 7 7 7 7 7 7 7 6 7 7 7 7 7 7 7 7 7 7 7 7 8 8 8 8 8
8 8 8 8 8 8 8 8 8 8 7 7 7 7 7 7 7 7 7 6 6 7 6 7 7 7 7 7 7 7 7 7 7 7 7 7 7 7
8 8 8 8 8 8 8 8 7 7 7 7 7 7 7 7 7 7 6 6 6 6 6 6 6 7 7 7 7 7 7 7 7 7 7 7 7 7
8 8 7 7 7 7 7 7 7 7 7 7 6 6 6 6 6 6 6 6 6 6 6 6 6 6 7 7 7 7 7 7 7 7 7 7 7 7
7 7 7 7 7 7 7 7 7 7 7 6 6 6 6 6 6 6 6 6 6 5 6 6 6 6 6 6 6 6 6 6 6 6 6 6 6 6
7 7 7 7 7 6 6 7 6 6 6 6 6 6 6 6 6 6 6 6 6 6 6 5 6 6 6 6 6 6 6 6 6 6 6 6 6 6
6 6 6 6 6 6 6 6 6 6 6 6 6 6 5 6 5 5 5 5 5 5 6 5 5 5 5 5 5 6 6 6 6 6 6 6 5 5
6 6 6 6 6 6 6 6 5 5 5 5 5 5 5 5 5 5 5 5 5 5 5 5 5 5 5 5 5 5 5 5 5 5 5 5 5 5
5 5 5 5 5 5 5 5 5 5 5 5 5 5 5 5 5 5 5 5 5 5 5 5 5 5 5 5 5 5 5 5 5 5 5 5 5 5
5 5 5 5 5 5 5 5 5 5 5 5 5 5 5 5 5 4 4 4 4 5 5 5 5 5 5 5 5 5 5 5 5 5 4 5 5 4
4 5 5 5 5 5 5 5 5 4 4 4 4 4 4 4 4 4 4 4 4 4 4 4 4 4 4 4 4 4 4 4 4 4 4 4 4 4
4 4 4 4 4 4 4 4 4 4 4 4 4 4 3 4 4 4 4 4 4 4 4 4 4 4 3 3 4 4 4 4 4 4 4 4 4 4
4 4 4 4 4 4 4 4 4 4 4 4 3 3 3 3 3 3 3 3 4 3 3 3 3 3 3 3 3 4 4 4 4 4 4 4 3 3
3 3 3 3 3 3 3 3 3 3 3 3 3 3 3 3 3 3 3 3 3 3 3 3 3 3 3 3 3 3 3 3 3 3 3 3 3 3
3 3 3 3 3 3 3 3 3 3 3 3 3 3 3 3 3 3 3 3 3 3 3 3 3 3 3 2 3 3 3 3 3 3 3 3 3 3
2 2 2 2 2 2 2 2 2 2 2 2 2 3 2 2 2 2 2 2 2 3 3 3 3 3 3 2 2 2 2 2 3 3 3 3 3 3
Wind_Speed
2 2 1 1 1 2 2 1 1 0 1 1 1 1 3 3 3 4 4 5 6 6 6 7 7 7 7 6 6 5 5 5 5 6 4 4 4 3
0 1 1 1 1 1 1 1 1 1 0 1 1 0 1 2 3 3 3 3 3 4 4 5 6 6 5 5 5 5 4 4 5 5 5 5 6 5
0 0 0 1 1 1 1 1 2 1 0 1 1 0 1 1 1 1 1 2 1 2 3 3 3 4 5 4 3 3 3 3 4 4 5 4 5 5
1 0 0 1 1 1 1 1 1 0 1 1 1 0 0 1 1 1 0 1 1 0 1 2 3 3 3 3 3 2 2 2 2 3 4 4 4 5
1 0 1 1 1 0 0 0 1 1 1 1 1 1 1 1 0 1 1 1 1 2 2 2 3 3 3 3 2 1 0 1 1 2 3 4 4 5
0 1 0 1 1 0 1 1 1 0 0 1 1 1 1 1 0 1 2 2 2 1 1 2 4 4 4 4 3 3 2 1 1 0 1 2 4 3
1 1 0 1 0 0 0 1 1 1 1 1 1 1 1 1 2 2 2 2 3 1 1 2 2 3 3 4 5 5 4 4 3 2 1 2 3 2
2 2 2 1 0 0 1 1 1 1 1 2 2 2 3 2 2 2 2 2 3 2 1 3 2 2 4 4 5 6 7 6 5 4 3 2 2 2
2 2 2 2 1 2 2 3 2 3 3 3 3 3 3 3 2 3 3 3 4 3 2 4 3 3 4 5 6 7 7 7 7 5 4 4 3 3
2 2 1 2 2 1 1 2 2 3 4 3 3 4 3 3 4 4 4 4 4 2 1 3 3 3 3 5 8 8 8 8 7 7 6 5 5 4
3 2 2 3 4 2 2 3 3 3 4 5 5 5 5 5 4 2 2 2 4 4 2 2 3 3 3 3 7 9 9 8 8 8 7 6 6 5
3 3 3 3 3 3 3 3 4 4 3 3 4 5 5 6 7 4 4 3 3 3 3 2 2 1 2 2 2 5 6 7 7 8 8 7 6 4
3 3 2 3 3 4 4 4 5 4 3 3 4 4 3 4 4 5 4 4 4 4 3 2 2 2 2 2 2 3 4 3 4 5 7 8 8 6
4 3 3 4 5 5 5 5 7 6 3 3 3 4 4 4 4 4 4 4 5 5 5 3 3 3 2 3 3 2 2 3 3 3 4 5 7 8
4 5 5 5 5 5 7 7 6 4 3 3 4 4 4 4 3 2 3 3 4 5 5 5 3 3 3 4 4 3 2 2 3 3 3 3 4 4
4 5 5 5 5 6 6 5 4 4 4 4 4 4 3 2 2 2 3 3 3 4 4 5 5 4 4 4 4 4 3 3 3 3 2 3 3 4
3 2 2 2 3 3 3 3 3 3 4 3 3 3 3 3 3 3 3 3 3 4 4 3 4 5 4 4 4 5 4 3 3 3 2 3 3 4
3 3 4 3 4 4 4 3 3 3 3 3 3 3 4 3 3 3 3 3 4 4 4 3 2 2 2 3 5 5 4 3 3 3 3 3 4 4
3 4 4 4 4 4 4 4 4 4 3 4 4 4 3 3 4 4 4 4 4 4 4 3 2 2 4 5 4 4 3 3 2 3 3 4 4 4
3 3 4 4 3 4 4 4 4 3 3 4 4 4 4 4 4 4 4 5 5 4 4 3 4 4 6 5 4 3 6 5 4 4 4 3 3 3
3 3 3 3 3 4 4 3 4 4 4 4 4 5 4 4 5 5 4 6 5 4 5 5 6 6 3 2 3 3 3 7 7 4 4 3 2 2
3 3 3 3 3 3 3 3 4 4 4 4 5 5 5 5 5 6 5 5 4 5 6 5 3 3 3 5 6 5 4 3 5 6 6 6 4 5
3 3 3 3 3 3 3 4 4 4 4 4 4 4 5 5 5 5 5 5 5 5 4 4 3 4 5 5 5 5 4 4 3 3 4 7 8 8
Wind_Direction
14 25 40 49 36 40 67 116 142 213 323 331 28 31 88 95 67 69 69 63 48 36 32 29 26 25 27 31 30 32 36 30 30 28 32 32 31 34
85 36 13 27 50 45 42 19 39 124 273 328 346 24 62 73 67 76 84 64 42 29 29 26 26 23 20 24 28 35 37 42 37 30 26 31 33 30
62 104 1 36 54 40 35 36 29 72 98 330 350 55 50 73 66 64 140 114 77 15 10 14 14 13 13 14 19 31 41 40 34 27 18 18 21 18
315 343 337 63 61 40 31 30 5 99 141 247 299 312 280 190 163 251 257 169 165 254 319 334 334 337 349 354 355 10 33 34 27 18 16 17 14 8
318 291 229 116 127 159 120 32 327 330 127 187 256 279 288 276 305 301 295 253 251 222 244 287 305 304 317 322 322 299 308 20 3 10 26 14 5 1
4 321 326 122 156 206 230 229 240 237 220 177 214 256 268 277 300 278 302 294 288 260 248 260 270 284 291 290 282 260 239 242 282 316 17 358 352 356
244 236 123 63 111 160 261 283 304 236 225 210 225 252 250 275 269 264 283 293 288 272 282 261 244 248 263 270 264 256 242 237 246 239 272 311 322 337
246 227 203 190 358 358 307 294 299 264 253 231 240 240 247 246 269 279 281 291 288 272 262 269 227 246 231 228 244 246 244 235 229 228 242 263 284 305
250 240 252 228 177 213 266 280 283 288 271 240 245 249 244 241 242 262 269 269 265 250 257 268 250 251 237 225 230 236 236 228 221 225 235 240 247 265
250 232 223 211 228 212 249 276 270 271 263 255 237 244 246 241 232 237 246 267 280 270 220 260 264 261 255 217 224 226 227 223 220 221 231 238 237 245
261 236 231 213 215 221 241 268 279 280 278 274 280 280 273 267 261 251 255 265 276 269 243 241 260 274 260 242 221 222 222 222 226 228 228 234 235 240
275 253 242 237 218 219 220 241 260 268 279 290 285 280 270 264 263 234 223 237 255 261 241 228 256 277 287 260 214 205 219 229 232 231 227 228 228 228
274 268 249 243 238 247 247 242 260 273 259 259 266 263 261 251 249 248 229 217 232 252 237 209 246 252 244 272 272 232 211 216 227 238 232 229 227 220
274 276 268 257 259 263 266 262 271 279 260 253 258 254 250 253 255 256 254 238 234 242 236 212 220 229 243 264 268 260 238 219 209 217 225 233 234 231
278 287 293 273 264 260 259 258 261 254 245 250 255 255 249 245 251 263 278 274 270 261 243 228 216 226 226 241 256 256 260 247 211 203 208 204 209 216
284 286 285 271 257 257 262 255 238 234 235 239 248 256 256 252 250 251 261 265 270 278 266 241 219 214 233 243 242 249 239 233 224 211 207 211 217 219
284 282 271 263 250 253 253 253 246 241 247 245 247 257 256 249 253 250 245 253 254 260 269 264 234 217 222 225 244 244 237 236 225 202 200 226 225 214
271 256 255 248 244 247 250 252 249 245 246 247 252 254 251 251 256 260 252 246 251 258 259 260 258 279 286 272 233 230 229 229 227 205 199 217 233 224
258 255 254 250 247 249 249 247 249 248 247 246 246 250 255 257 256 253 249 251 254 253 252 240 226 224 245 263 274 231 222 228 220 211 210 212 229 226
264 269 271 268 263 259 255 251 251 253 252 253 250 246 244 249 257 259 252 247 249 250 252 240 226 222 228 240 248 255 229 218 217 220 221 225 240 229
283 284 284 284 282 275 271 266 261 256 258 257 257 254 245 244 251 254 256 258 251 245 244 244 238 229 228 233 263 262 248 236 228 220 207 206 231 234
285 283 285 289 289 286 284 274 266 263 260 259 259 255 249 245 248 251 251 248 248 251 251 250 235 218 214 227 244 251 253 254 249 247 235 214 200 212
284 285 286 287 285 284 283 280 271 265 262 262 263 262 257 257 254 251 250 246 247 250 259 259 246 230 226 227 237 245 240 236 225 227 250 251 239 238
Height
1517 1518 1518 1518 1518 1519 1519 1520 1520 1519 1519 1519 1519 1519 1519 1518 1517 1515 1515 1514 1514 1513 1512 1512 1512 1511 1511 1511 1510 1510 1510 1509 1510 1510 1510 1511 1511 1511
1517 1517 1517 1517 1518 1518 1518 1519 1519 1519 1518 1518 1518 1518 1518 1517 1516 1515 1514 1514 1513 1512 1511 1511 1511 1510 1510 1510 1509 1509 1509 1509 1509 1509 1509 1509 1509 1509
1516 1516 1516 1517 1517 1517 1517 1517 1518 1518 1517 1517 1517 1517 1516 1516 1515 1514 1513 1512 1512 1511 1511 1510 1509 1509 1509 1508 1508 1508 1507 1507 1508 1508 1507 1508 1507 1508
1515 1515 1515 1515 1515 1515 1516 1516 1516 1516 1516 1515 1515 1515 1515 1514 1513 1513 1512 1511 1511 1510 1509 1509 1508 1508 1507 1507 1507 1506 1506 1506 1506 1506 1506 1505 1506 1506
1513 1513 1513 1513 1513 1513 1514 1514 1514 1514 1514 1514 1513 1513 1513 1513 1512 1511 1511 1510 1510 1509 1508 1507 1507 1506 1506 1505 1505 1505 1505 1504 1504 1504 1504 1504 1504 1504
1511 1511 1511 1511 1511 1511 1511 1511 1512 1512 1512 1512 1511 1511 1511 1511 1510 1509 1508 1508 1507 1507 1506 1506 1505 1504 1504 1504 1503 1503 1503 1502 1502 1502 1502 1502 1501 1501
1509 1509 1509 1509 1509 1509 1509 1509 1509 1509 1509 1509 1509 1508 1508 1508 1507 1507 1506 1506 1505 1505 1504 1503 1503 1502 1502 1501 1501 1501 1500 1500 1500 1500 1500 1499 1499 1499
1506 1506 1506 1506 1506 1506 1506 1506 1507 1506 1506 1506 1506 1506 1505 1505 1505 1505 1504 1503 1502 1503 1502 1501 1500 1499 1499 1499 1499 1498 1498 1498 1498 1498 1498 1497 1497 1497
1503 1503 1503 1504 1503 1503 1503 1503 1503 1503 1504 1504 1503 1502 1502 1502 1502 1502 1501 1500 1500 1500 1499 1497 1497 1496 1496 1496 1496 1496 1496 1495 1495 1495 1495 1495 1495 1495
1500 1500 1500 1500 1500 1500 1500 1500 1500 1500 1500 1500 1500 1499 1499 1499 1499 1499 1498 1497 1497 1497 1497 1495 1494 1493 1493 1493 1493 1493 1493 1493 1492 1492 1492 1492 1492 1492
1497 1497 1497 1497 1498 1497 1497 1496 1496 1496 1496 1496 1496 1496 1496 1496 1496 1495 1494 1494 1492 1492 1493 1492 1491 1490 1490 1489 1490 1490 1490 1490 1489 1489 1489 1489 1489 1490
1493 1494 1494 1494 1494 1494 1493 1493 1492 1492 1492 1491 1491 1491 1491 1491 1491 1491 1490 1490 1489 1488 1489 1489 1488 1487 1486 1486 1486 1486 1486 1486 1486 1486 1485 1486 1486 1486
1489 1490 1490 1490 1490 1490 1489 1489 1488 1488 1488 1487 1487 1487 1487 1486 1486 1486 1486 1486 1485 1485 1485 1485 1484 1484 1484 1483 1483 1483 1483 1482 1482 1482 1482 1482 1482 1483
1485 1485 1486 1486 1485 1485 1485 1485 1485 1485 1484 1483 1483 1482 1482 1482 1482 1482 1482 1482 1481 1481 1481 1481 1481 1480 1480 1479 1478 1479 1479 1479 1478 1478 1478 1478 1478 1479
1481 1481 1481 1481 1481 1481 1481 1481 1480 1480 1480 1479 1478 1478 1478 1478 1478 1477 1477 1477 1477 1476 1476 1476 1476 1476 1475 1475 1474 1474 1474 1474 1474 1474 1474 1474 1474 1475
1477 1477 1477 1477 1476 1476 1476 1476 1476 1476 1475 1475 1474 1474 1474 1473 1473 1473 1472 1472 1471 1471 1471 1471 1471 1471 1470 1470 1470 1469 1469 1470 1470 1470 1470 1470 1470 1471
1472 1472 1472 1472 1472 1472 1471 1471 1471 1471 1471 1471 1470 1469 1469 1469 1468 1468 1468 1467 1467 1466 1465 1466 1466 1466 1466 1465 1465 1464 1464 1465 1465 1466 1466 1466 1466 1467
1468 1467 1467 1467 1467 1467 1467 1467 1467 1466 1466 1466 1465 1465 1464 1464 1463 1463 1463 1462 1462 1461 1461 1461 1461 1461 1461 1460 1460 1459 1460 1460 1461 1461 1462 1462 1462 1463
1463 1462 1463 1463 1463 1463 1463 1462 1462 1462 1461 1461 1461 1460 1460 1459 1459 1458 1458 1457 1456 1456 1456 1456 1456 1456 1455 1454 1454 1455 1455 1455 1456 1457 1457 1458 1458 1459
1458 1458 1458 1458 1458 1458 1458 1458 1457 1457 1457 1456 1456 1455 1455 1454 1454 1453 1452 1452 1451 1451 1451 1451 1450 1450 1450 1450 1449 1449 1451 1451 1451 1452 1452 1453 1454 1455
1454 1454 1454 1454 1454 1454 1453 1453 1453 1452 1452 1451 1451 1450 1450 1449 1448 1448 1448 1447 1446 1446 1445 1444 1444 1445 1445 1446 1445 1444 1445 1446 1447 1447 1448 1449 1449 1450
1451 1450 1450 1450 1449 1449 1449 1448 1448 1447 1446 1446 1445 1445 1445 1444 1443 1443 1442 1441 1441 1440 1439 1439 1439 1440 1440 1439 1439 1440 1441 1442 1442 1443 1444 1445 1445 1444
1447 1447 1446 1445 1445 1444 1444 1443 1443 1442 1441 1441 1440 1440 1439 1439 1438 1437 1437 1436 1436 1435 1434 1434 1433 1433 1433 1434 1435 1435 1436 1437 1437 1438 1439 1440 1441 1442